Location: DARK SKY Beskydy - Park tmavé oblohy, www.darkskybeskydy.cz
(49.4926°N, 18.5016°E)
Time: 04:34:16
(UTC+02:00)

ISS - Pass Details

Date: 26 June 2024
Orbit: 409 x 424 km, 51.6° (Epoch: 18 July)

Event Time Altitude Azimuth Distance (km) Brightness Sun altitude
Exits shadow 02:58:28 13° 169° (S) 1,328 -1.7 -11.7°
Maximum altitude 02:59:57 16° 138° (SE) 1,169 -1.7 -11.5°
Drops below altitude 10° 03:02:06 10° 98° (E) 1,490 -0.7 -11.4°
Sets 03:04:45 0° 77° (ENE) 2,362 0.8 -11.1°
